Simultaneous Nadir Overpasses (SNOs) Predictions

Prediction of SNOs between AURA and NPP Satellite Orbit:

Table of predicted SNOs for the next 14.0 days since TLE Epoch: 8/9/2019
Index Date (AURA) Time (AURA) Lat,Lon (AURA) SZA (AURA ) Date (NPP) Time (NPP) Lat,Lon (NPP) SZA (NPP ) Distance(km) Time Diff (sec)
1 08/10/2019 19:08:25 79.29, 148.23 77.74 08/10/2019 19:08:11 79.29, 148.17 77.76 1.35 14
2 08/10/2019 19:57:44 -79.60, -42.02 102.71 08/10/2019 19:58:47 -79.60, -41.96 102.77 1.39 63
3 08/13/2019 10:35:30 -79.16, 95.62 101.31 08/13/2019 10:34:25 -79.16, 95.66 101.27 0.75 65
4 08/13/2019 11:24:50 79.38, -95.27 78.37 08/13/2019 11:25:03 79.37, -95.40 78.39 2.93 13
5 08/16/2019 02:51:57 -79.21,-148.15 100.60 08/16/2019 02:51:19 -79.21,-148.17 100.57 0.56 38
6 08/16/2019 03:41:14 79.55, 21.75 78.92 08/16/2019 03:41:53 79.56, 21.86 78.87 2.18 39
7 08/18/2019 19:08:23 -79.30, -31.68 99.92 08/18/2019 19:08:12 -79.30, -31.75 99.90 1.50 11
8 08/18/2019 19:57:41 79.60, 137.98 79.66 08/18/2019 19:58:47 79.60, 138.03 79.61 1.14 66
9 08/21/2019 10:35:27 79.18, -84.21 81.09 08/21/2019 10:34:25 79.18, -84.16 81.12 1.14 62




NCC Satellite Simultaneous Nadir Overpasses (SNOs) Prediction Service
